Location: Copeville
(33.0796°N, 96.4155°W)
Time: 14:47:52
(UTC+00:00)

GPS 2-04 Rocket1 - Pass Details

Date: 08 December 2021
Orbit: 412 x 531 km, 35.6° (Epoch: 29 January)

Event Time Altitude Azimuth Distance (km) Brightness Sun altitude
Rises 23:37:30 0° 284° (WNW) 2,655 7.2 -4.4°
Reaches altitude 10° 23:39:45 10° 282° (WNW) 1,775 6.4 -4.8°
Maximum altitude 23:43:49 66° 200° (SSW) 582 3.2 -5.6°
Drops below altitude 10° 23:47:54 10° 118° (ESE) 1,778 5.1 -6.4°
Sets 23:50:10 0° 115° (ESE) 2,662 5.9 -6.8°
